This is the latest recevied weather packets stored in our database for station/object K7PMV-13. If no packets are shown the sender has not sent any weather packets the latest 10 day(s).
| Time | Temp. | Humidity | Pressure | Rain* | Wind** | Luminosity | Snow |
|---|---|---|---|---|---|---|---|
| 1777928589 | 25.56° C | 38% | 1008.3 hPa | 0 mm | - | 207 W/m² | - |
| 1777928268 | 25.56° C | 38% | 1008.2 hPa | 0 mm | - | 207 W/m² | - |
| 1777927953 | 25.56° C | 38% | 1008.2 hPa | 0 mm | - | 253 W/m² | - |
| 1777927638 | 25.56° C | 38% | 1008.2 hPa | 0 mm | - | 265 W/m² | - |
| 1777927320 | 25.56° C | 38% | 1008.2 hPa | 0 mm | - | 292 W/m² | - |
| 1777927006 | 25.56° C | 37% | 1008.3 hPa | 0 mm | - | 376 W/m² | - |
| 1777926691 | 25.56° C | 37% | 1008.3 hPa | 0 mm | - | 455 W/m² | - |
| 1777926377 | 25.56° C | 38% | 1008.2 hPa | 0 mm | - | 439 W/m² | - |
| 1777926061 | 25.56° C | 37% | 1008.1 hPa | 0 mm | - | 431 W/m² | - |
| 1777925746 | 25.56° C | 37% | 1008.1 hPa | 0 mm | - | 455 W/m² | - |
| 1777925432 | 25.56° C | 38% | 1008.1 hPa | 0 mm | - | 506 W/m² | - |
| 1777925114 | 25.56° C | 37% | 1008.1 hPa | 0 mm | - | 485 W/m² | - |
| 1777924793 | 25° C | 38% | 1008.2 hPa | 0 mm | - | 427 W/m² | - |
| 1777924478 | 25.56° C | 38% | 1008.1 hPa | 0 mm | - | 329 W/m² | - |
| 1777924160 | 25.56° C | 37% | 1008.2 hPa | 0 mm | - | 311 W/m² | - |
| 1777923845 | 25.56° C | 37% | 1008.2 hPa | 0 mm | - | 334 W/m² | - |
| 1777923528 | 25° C | 38% | 1008.3 hPa | 0 mm | - | 352 W/m² | - |
| 1777923206 | 25.56° C | 37% | 1008.3 hPa | 0 mm | - | 371 W/m² | - |
| 1777922886 | 25.56° C | 38% | 1008.5 hPa | 0 mm | - | 367 W/m² | - |
| 1777922568 | 25.56° C | 37% | 1008.5 hPa | 0 mm | - | 410 W/m² | - |
| 1777922238 | 25.56° C | 38% | 1008.6 hPa | 0 mm | - | 487 W/m² | - |
| 1777921923 | 25.56° C | 38% | 1008.5 hPa | 0 mm | - | 517 W/m² | - |
| 1777921586 | 25.56° C | 37% | 1008.3 hPa | 0 mm | - | 536 W/m² | - |
| 1777921268 | 25° C | 38% | 1008.2 hPa | 0 mm | - | 483 W/m² | - |
| 1777920954 | 25° C | 37% | 1008.2 hPa | 0 mm | - | 485 W/m² | - |
* Rain latest hour (hover to see other rain measurements)
** Current wind speed in m/s (hover to see current wind gust speed)